Location: Newark
(47.5833°N, 8.1500°E)
Time: 18:10:37
(UTC+00:00)

Transit 2A - Pass Details

Date: 28 October 2020
Orbit: 595 x 964 km, 66.7° (Epoch: 29 November)

Event Time Altitude Azimuth Distance (km) Brightness Sun altitude
Rises 03:20:06 0° 274° (W) 3,648 - -28.4°
Reaches altitude 10° 03:23:37 10° 293° (WNW) 2,688 - -27.8°
Maximum altitude 03:27:49 18° 335° (NNW) 2,122 - -27.1°
Exits shadow 03:28:07 18° 338° (NNW) 2,122 8.1 -27.0°
Drops below altitude 10° 03:31:54 10° 17° (NNE) 2,596 9.0 -26.4°
Sets 03:35:13 0° 36° (NE) 3,477 10.0 -25.9°
